Wind_Speed
22 24 25 27 29 32 22 6 3 20 14 1 1 1 4 6 4 6 5 4 6 3 5 4 4 4 7 8 10 20 7 3 4 5 2 3 6 8 7 6 5 0 5 6
21 22 23 26 28 30 15 4 2 12 8 3 3 5 5 3 4 4 5 4 2 3 5 4 3 5 5 7 10 11 8 3 1 2 3 3 4 4 6 6 4 7 6 6
20 22 21 24 27 29 11 2 4 4 4 1 3 4 4 7 9 2 9 5 6 6 3 3 6 5 5 9 3 8 10 5 8 7 3 6 4 4 5 7 5 6 7 5
19 19 21 22 24 25 8 3 1 2 3 4 7 4 7 10 10 7 10 3 13 9 4 7 4 5 7 5 11 2 5 7 4 5 3 4 6 8 10 11 7 13 7 9
17 19 19 20 21 21 7 3 3 4 3 6 5 8 8 9 11 3 6 11 16 11 4 5 5 10 4 3 9 7 5 3 4 5 6 7 5 8 12 9 5 5 8 6
18 17 17 16 17 17 5 6 4 2 4 4 3 3 4 6 10 4 5 11 12 11 5 15 16 14 12 10 6 5 5 1 3 3 3 5 5 10 10 4 4 8 6 7
17 15 14 14 12 12 8 3 3 2 3 2 3 8 7 9 9 8 12 4 5 8 20 17 11 9 10 9 9 6 3 2 1 4 4 5 6 8 13 14 9 7 5 6
18 17 13 12 9 8 6 6 3 1 3 3 9 5 8 9 7 3 7 3 8 12 8 4 4 2 2 5 8 7 8 3 1 5 4 5 1 4 8 7 6 9 8 8
18 17 13 11 9 6 4 5 4 2 3 2 3 7 3 3 4 5 4 8 11 7 3 1 3 4 4 6 5 3 4 2 2 1 6 8 6 3 7 5 5 6 8 8
17 17 14 13 13 9 4 3 5 2 2 4 1 2 2 4 4 3 4 8 6 5 4 2 3 3 3 3 11 1 4 2 5 2 1 4 5 3 4 8 7 7 10 10
16 17 13 16 15 8 5 4 6 5 2 6 5 3 3 4 1 2 5 6 3 3 5 3 4 3 3 3 3 11 6 2 2 2 3 1 3 3 5 4 2 3 4 6
16 16 17 16 16 13 7 6 8 8 4 6 22 23 28 20 20 4 3 3 2 2 2 2 3 3 4 5 2 5 4 5 3 4 1 3 5 4 3 3 2 3 1 3
16 17 18 18 17 16 11 11 10 6 3 5 3 6 8 7 11 15 3 3 3 2 3 2 1 4 4 4 4 5 3 6 3 3 3 4 7 6 6 6 5 5 4 2
19 19 19 19 19 17 14 12 13 9 3 2 6 5 13 23 16 17 25 10 1 1 1 0 2 2 0 2 4 3 3 6 1 5 3 4 2 5 6 7 4 8 7 2
23 23 21 21 21 21 17 18 16 17 4 3 5 17 17 3 10 20 23 15 4 1 1 2 3 2 1 3 3 3 3 4 3 1 5 3 4 5 7 8 8 7 5 5
26 26 25 25 23 21 5 2 9 20 20 1 4 6 6 12 7 8 13 12 3 3 3 3 2 4 1 1 2 3 6 6 4 4 14 4 7 2 5 5 8 9 10 8
25 24 14 15 16 12 3 3 1 13 18 1 3 4 4 6 4 2 2 6 2 3 2 1 3 3 1 2 3 4 5 3 8 8 7 5 8 4 5 4 4 12 15 17
22 17 11 9 8 5 4 8 9 18 5 1 1 4 5 4 2 2 1 2 1 2 3 1 2 2 1 3 6 7 4 2 5 9 6 6 7 5 4 3 6 10 10 11
20 9 6 1 1 1 2 16 17 11 2 2 2 2 4 3 2 1 3 1 1 0 2 2 3 2 4 6 8 7 5 5 6 5 5 7 7 7 6 6 3 6 6 8
10 5 1 1 1 14 14 4 1 2 1 2 3 2 3 2 2 3 2 1 2 2 4 2 2 4 11 10 10 9 6 6 6 6 5 5 7 6 7 4 1 2 5 7
6 3 2 5 9 2 4 2 2 1 3 2 3 5 3 1 2 3 2 2 1 1 2 3 2 3 4 5 9 12 13 9 10 11 8 6 7 6 6 5 6 7 7 8
13 12 7 4 3 3 3 1 2 4 3 2 3 3 4 3 2 2 2 1 0 3 1 2 2 4 5 5 5 5 6 6 8 7 8 6 5 6 1 4 5 9 14 12
15 4 3 3 2 3 4 4 3 2 3 3 3 2 2 1 0 1 1 3 3 1 2 3 4 4 5 5 5 5 5 7 5 6 10 11 9 13 11 8 10 12 15 17
3 4 5 4 3 4 5 3 2 3 2 2 2 1 3 2 1 2 2 3 2 2 1 3 2 3 5 4 2 3 2 4 6 5 5 6 8 7 9 10 10 13 14 13
3 3 3 6 4 4 4 4 2 3 2 2 0 1 2 2 3 2 2 3 2 3 3 3 3 3 2 4 3 2 2 1 2 2 2 3 4 3 3 4 5 8 10 11
2 2 2 2 0 3 2 3 5 3 3 2 2 1 0 3 3 2 5 2 3 3 2 3 2 2 0 0 2 2 2 3 4 4 5 5 5 4 4 3 4 4 5 8
2 4 2 3 2 4 4 4 4 4 3 3 2 3 7 1 1 3 3 4 3 3 3 3 3 2 3 2 2 2 3 5 5 6 8 10 8 6 5 5 9 10 13 15
Wind_Direction
348 349 352 353 352 352 354 356 36 0 353 36 53 4 315 331 320 318 273 274 251 294 309 306 319 241 218 196 172 204 189 156 200 198 307 189 153 160 148 164 235 134 156 251
350 349 350 354 353 357 350 351 286 355 20 62 339 307 307 286 325 324 319 308 332 338 313 320 325 326 301 325 178 174 170 234 82 63 354 358 150 158 122 107 95 186 152 253
349 349 355 356 353 355 357 41 14 339 20 91 338 334 339 352 330 329 336 284 315 325 307 263 305 315 312 329 330 183 143 155 178 198 168 146 142 147 148 141 164 166 214 165
342 348 354 355 355 356 1 28 306 8 331 337 338 317 5 3 6 342 360 356 10 339 285 328 327 344 313 334 355 77 122 191 169 197 172 145 166 176 173 194 177 197 204 190
340 349 354 357 359 5 44 42 5 347 293 299 336 359 8 1 348 307 351 353 327 325 292 19 318 345 338 343 337 16 5 234 143 209 206 183 192 203 191 203 143 86 157 208
333 335 339 353 3 12 16 351 4 324 299 329 346 354 333 327 335 290 285 329 312 304 349 318 287 275 267 264 291 329 4 129 105 224 169 129 283 206 181 166 166 144 161 210
327 331 331 341 358 7 5 340 319 334 288 330 321 321 310 307 312 295 294 318 330 304 317 304 261 237 265 258 254 211 286 9 358 183 105 193 254 184 176 184 185 176 128 162
328 329 316 322 337 352 360 343 321 312 283 267 301 348 312 309 294 273 294 315 306 309 301 315 307 316 75 275 257 217 198 130 114 142 182 285 197 177 148 153 237 181 167 179
325 328 323 318 311 313 327 325 326 296 324 277 332 303 311 318 309 324 277 322 310 351 274 248 238 214 205 172 303 54 113 97 122 66 162 225 238 234 147 92 235 195 164 167
318 327 328 323 314 292 265 269 278 308 278 271 225 283 279 284 291 286 306 337 336 8 342 246 253 262 215 224 183 252 339 348 173 169 175 288 250 272 153 150 231 188 183 181
309 317 319 316 325 302 250 254 275 244 258 275 228 256 222 283 312 234 302 346 331 351 9 337 337 301 295 279 224 174 184 313 232 92 77 234 348 79 143 229 176 139 172 174
305 308 313 316 314 318 280 236 245 247 220 260 292 277 267 255 253 241 239 212 282 242 51 8 307 316 324 332 232 341 131 186 248 167 256 320 333 46 352 339 35 31 287 178
301 297 297 298 301 307 305 259 233 229 258 283 314 255 300 260 243 234 216 274 231 260 177 197 279 292 339 342 19 314 36 37 301 121 74 350 0 347 2 12 21 337 314 220
299 294 292 290 288 288 285 279 258 204 239 258 279 303 280 289 280 222 209 221 65 82 118 267 244 252 177 305 280 299 281 318 302 297 72 131 323 18 327 340 4 24 356 18
305 300 293 288 285 280 274 272 254 231 207 241 289 297 289 208 280 237 217 211 178 206 209 229 253 253 235 236 261 245 335 351 353 344 350 296 259 329 330 3 14 4 355 342
307 299 296 284 280 286 269 284 230 230 194 308 307 289 290 311 323 219 187 189 166 192 171 216 224 264 212 261 264 257 331 316 353 318 313 296 288 318 338 330 28 23 30 7
313 316 308 287 286 271 175 205 234 176 174 122 277 284 276 312 347 43 91 162 186 173 198 216 217 260 161 284 243 225 242 299 330 321 328 336 12 9 343 327 15 50 43 27
317 316 307 296 284 288 204 190 138 148 128 85 268 272 333 3 324 333 177 129 182 218 212 344 209 311 147 247 242 268 280 300 298 296 324 319 292 331 337 358 347 48 37 22
307 291 289 307 356 167 218 164 151 157 187 188 224 203 265 350 300 252 357 142 187 174 197 236 134 231 228 232 249 258 231 204 246 273 320 324 322 305 313 338 356 62 38 31
274 179 71 33 17 121 117 49 51 20 280 230 248 209 256 61 6 304 38 234 295 181 228 120 177 253 248 248 247 258 203 227 256 289 289 298 321 333 321 330 30 94 76 43
149 127 103 96 152 78 37 88 118 306 288 242 244 203 233 258 158 234 186 266 287 328 254 158 248 266 249 258 242 245 257 247 236 238 249 239 248 273 310 341 34 38 45 62
163 133 121 121 60 42 80 255 295 224 247 217 206 230 196 264 152 104 243 227 356 253 105 81 263 260 283 316 321 270 219 224 234 227 242 247 251 269 172 59 41 37 53 46
126 86 80 90 318 41 180 218 225 233 213 215 204 257 204 326 105 254 185 237 239 94 40 232 236 278 299 302 335 26 59 78 71 75 85 87 69 73 83 85 68 64 56 46
101 125 139 168 246 234 204 209 204 230 216 186 185 257 188 160 185 206 231 234 94 337 255 241 251 270 333 344 343 56 57 82 94 92 94 98 99 85 76 73 62 54 45 32
111 108 199 207 224 235 224 225 251 230 205 142 90 281 136 200 251 210 279 354 266 224 240 246 275 297 328 20 30 103 159 193 209 221 224 150 131 112 100 77 53 44 38 30
115 188 238 224 106 281 245 208 245 209 177 113 83 242 39 229 223 180 220 235 223 253 230 243 264 247 154 316 357 356 287 243 233 226 231 226 224 231 259 287 310 335 355 351
221 242 221 174 221 221 230 192 227 151 128 187 153 202 223 6 273 239 191 209 221 222 244 244 227 265 307 343 336 325 331 305 264 234 229 227 222 209 235 271 281 296 307 311
Height
836 831 826 820 813 806 797 795 801 786 780 783 789 793 777 768 762 759 756 750 746 742 739 736 719 718 708 700 703 711 719 728 734 724 713 713 722 735 746 764 797 798 789 781
837 832 827 821 815 809 804 803 803 789 785 803 801 788 779 772 767 763 758 750 744 741 743 742 725 718 706 703 701 708 715 737 741 728 723 718 721 729 737 753 771 778 786 780
838 833 828 823 817 811 806 807 815 803 795 800 801 795 785 778 770 766 765 756 745 747 737 734 732 723 710 709 701 699 700 725 725 733 719 726 725 726 732 736 759 766 763 752
838 834 830 825 820 813 809 814 822 814 819 804 803 796 793 787 782 774 769 762 766 766 756 744 734 728 720 708 708 702 704 718 720 718 707 713 718 722 729 729 737 736 744 745
838 835 832 828 823 817 815 818 819 815 815 807 804 799 798 793 789 784 774 776 770 768 761 759 756 747 734 724 715 715 714 718 714 733 713 712 717 720 722 722 733 736 740 740
838 835 832 829 826 823 820 820 819 819 815 811 806 808 804 798 794 782 778 776 773 765 760 762 755 751 743 739 735 725 727 730 729 721 715 718 730 719 722 725 726 730 744 731
837 834 832 830 828 826 826 824 823 822 821 814 808 806 804 799 797 791 781 777 775 764 759 752 737 740 735 731 727 726 725 725 732 741 721 739 700 700 705 710 715 720 720 724
835 832 831 829 828 827 826 826 825 824 822 814 808 805 804 798 793 788 783 775 773 767 761 754 740 742 735 734 723 719 722 728 742 731 740 719 700 706 710 712 715 715 713 718
834 831 829 828 827 826 825 825 824 823 820 817 811 809 805 805 802 793 782 775 770 767 760 756 761 747 724 725 714 711 720 721 733 750 724 734 709 694 693 695 720 705 709 717
832 829 827 825 824 823 824 823 823 823 821 813 810 812 811 806 802 800 791 785 776 771 771 760 749 735 718 717 718 727 728 733 733 754 743 712 702 696 692 713 715 700 702 706
829 827 826 824 822 821 822 821 822 822 819 811 807 806 805 803 804 808 798 795 784 785 777 771 763 749 729 720 707 705 732 733 735 737 740 715 700 694 700 700 694 693 699 702
826 825 823 821 820 819 818 818 818 818 819 810 804 800 798 798 797 800 797 800 795 787 791 784 782 762 748 740 722 711 723 724 724 720 720 714 708 704 703 699 696 694 694 696
822 821 820 818 817 816 817 814 814 815 813 805 801 792 789 789 789 791 796 794 788 785 785 787 783 773 768 748 744 739 723 722 721 716 720 720 715 710 708 703 701 699 695 694
817 816 815 813 812 812 812 811 810 811 811 813 797 788 786 783 783 783 783 784 785 786 785 788 786 781 770 767 764 754 738 732 727 726 717 715 716 716 716 709 704 700 699 696
812 811 809 808 806 806 805 804 803 806 811 811 797 786 776 775 776 775 778 781 784 786 785 785 782 772 770 769 762 752 741 742 736 733 725 726 720 717 716 712 707 705 703 699
807 804 802 801 800 801 793 798 796 797 802 806 805 786 776 772 770 770 773 776 781 783 786 788 777 772 770 764 759 745 746 741 742 740 730 723 718 716 718 716 711 708 705 703
801 797 792 794 794 794 794 797 793 793 800 805 802 792 776 772 770 771 773 775 776 778 782 785 776 771 767 762 755 741 738 738 738 736 730 725 721 720 721 720 714 709 708 708
797 794 792 791 791 790 790 788 792 794 800 804 808 792 785 774 777 777 772 776 775 775 775 776 777 769 771 772 749 742 739 736 737 735 733 732 728 722 719 717 716 712 713 712
793 791 790 790 790 790 790 790 793 796 801 810 799 797 805 776 779 777 775 774 779 772 777 778 771 770 766 746 743 739 737 737 737 734 732 730 728 726 722 720 719 718 718 715
786 789 790 791 792 792 793 795 795 797 797 796 792 789 790 783 784 782 783 773 762 766 766 764 769 759 742 739 735 733 736 736 736 735 733 732 729 727 726 722 719 719 718 718
784 787 791 792 792 794 796 802 806 801 803 796 787 786 785 780 788 785 781 774 771 774 762 763 759 750 736 730 730 728 728 731 732 730 728 730 730 730 726 721 722 720 718 718
777 782 789 792 796 802 805 801 800 794 788 784 784 783 782 779 778 783 776 775 770 763 761 770 757 741 731 729 726 723 724 725 724 724 725 726 726 724 724 724 725 725 724 724
778 783 790 794 804 812 804 805 792 790 780 778 778 780 779 778 777 779 776 769 770 766 781 762 746 735 731 729 727 724 724 724 725 725 725 727 728 727 727 728 728 727 725 725
778 788 792 797 811 794 784 778 776 774 774 774 775 779 776 773 776 772 770 758 762 778 768 745 739 734 733 730 729 728 729 728 728 729 730 729 729 730 730 729 729 729 728 729
780 782 793 786 777 776 775 774 774 771 770 772 774 774 776 771 766 766 761 767 769 755 754 745 741 736 733 732 731 732 731 732 731 731 731 729 729 730 731 730 730 730 730 730
776 776 776 774 776 775 773 770 768 764 767 769 772 774 774 766 759 762 767 752 756 747 744 742 739 735 733 733 732 732 732 732 733 732 732 731 731 731 730 730 730 730 731 730
772 773 769 769 769 769 763 763 761 760 764 766 766 767 766 768 766 755 752 755 742 739 741 738 736 734 733 733 732 732 731 731 731 731 730 730 731 731 731 731 729 729 727 726